• In Russia
  • List of Countries
  • For 7 days
  • Water Temperature
  • Weather Map
  • Weather Widgets
  • user-avatar
    Login

    Hourly Weather Bogota

    Today, 26 January, Sunday

    Time Temperature Precipitation Wind Pressure Humidity
    00:00 +12°C° 0.1 mm 0 mps 548 mmHg 94%
    01:00 +12°C° 0 mm 0 mps 548 mmHg 94%
    02:00 +12°C° 0.2 mm 0 mps 548 mmHg 94%
    03:00 +11°C° 0.2 mm 0 mps 548 mmHg 94%
    04:00 +11°C° 0.2 mm 0 mps 548 mmHg 94%
    05:00 +11°C° 0.1 mm 0 mps 548 mmHg 93%
    06:00 +11°C° 0.1 mm 0 mps 548 mmHg 93%
    07:00 +12°C° 0.1 mm 0 mps 548 mmHg 93%
    08:00 +14°C° 0.1 mm 1 mps 549 mmHg 89%
    09:00 +15°C° 0.1 mm 1 mps 550 mmHg 85%
    10:00 +16°C° 0.1 mm 1 mps 551 mmHg 82%
    11:00 +16°C° 0.2 mm 1 mps 551 mmHg 79%
    12:00 +18°C° 0.2 mm 1 mps 550 mmHg 76%
    13:00 +18°C° 0.2 mm 2 mps 550 mmHg 73%
    14:00 +18°C° 0.4 mm 1 mps 549 mmHg 77%
    15:00 +16°C° 0.4 mm 1 mps 549 mmHg 81%
    16:00 +16°C° 0.4 mm 1 mps 548 mmHg 84%
    17:00 +15°C° 0.4 mm 1 mps 548 mmHg 87%
    18:00 +13°C° 0.4 mm 0 mps 548 mmHg 90%
    19:00 +12°C° 0.4 mm 0 mps 548 mmHg 93%
    20:00 +12°C° 0.1 mm 0 mps 548 mmHg 93%
    21:00 +12°C° 0.1 mm 0 mps 548 mmHg 93%
    22:00 +12°C° 0.1 mm 0 mps 549 mmHg 93%
    23:00 +12°C° 0.2 mm 0 mps 548 mmHg 93%

    Tomorrow, 27 January, Monday

    Time Temperature Precipitation Wind Pressure Humidity
    00:00 +11°C° 0.2 mm 0 mps 548 mmHg 93%
    01:00 +11°C° 0.2 mm 0 mps 548 mmHg 93%
    02:00 +11°C° 0.1 mm 0 mps 547 mmHg 94%
    03:00 +11°C° 0.1 mm 0 mps 547 mmHg 94%
    04:00 +10°C° 0.1 mm 0 mps 547 mmHg 94%
    05:00 +10°C° 0 mm 0 mps 547 mmHg 93%
    06:00 +11°C° 0 mm 0 mps 548 mmHg 92%
    07:00 +11°C° 0 mm 0 mps 548 mmHg 91%
    08:00 +13°C° 0.1 mm 1 mps 549 mmHg 84%
    09:00 +15°C° 0.1 mm 1 mps 551 mmHg 77%
    10:00 +18°C° 0.1 mm 1 mps 552 mmHg 70%
    11:00 +18°C° 0.3 mm 1 mps 551 mmHg 70%
    12:00 +18°C° 0.3 mm 2 mps 551 mmHg 69%
    13:00 +18°C° 0.3 mm 2 mps 550 mmHg 69%
    14:00 +17°C° 0.7 mm 2 mps 550 mmHg 74%
    15:00 +18°C° 0.7 mm 1 mps 549 mmHg 79%
    16:00 +16°C° 0.7 mm 1 mps 548 mmHg 84%
    17:00 +15°C° 0.4 mm 1 mps 548 mmHg 87%
    18:00 +14°C° 0.4 mm 1 mps 548 mmHg 91%
    19:00 +12°C° 0.4 mm 0 mps 547 mmHg 94%
    20:00 +11°C° 0.1 mm 0 mps 548 mmHg 94%
    21:00 +11°C° 0.1 mm 0 mps 548 mmHg 94%
    22:00 +11°C° 0.1 mm 0 mps 548 mmHg 94%
    23:00 +11°C° 0 mm 0 mps 548 mmHg 93%

    Day after tomorrow, 28 January, Tuesday

    Time Temperature Precipitation Wind Pressure Humidity
    00:00 +11°C° 0 mm 0 mps 548 mmHg 93%
    01:00 +11°C° 0 mm 0 mps 548 mmHg 93%
    02:00 +11°C° 0 mm 0 mps 547 mmHg 93%
    03:00 +10°C° 0 mm 0 mps 547 mmHg 93%
    04:00 +10°C° 0 mm 0 mps 546 mmHg 93%
    05:00 +10°C° 0 mm 0 mps 547 mmHg 92%
    06:00 +10°C° 0 mm 0 mps 547 mmHg 91%
    07:00 +10°C° 0 mm 0 mps 548 mmHg 90%
    08:00 +12°C° 0 mm 0 mps 549 mmHg 82%
    09:00 +16°C° 0 mm 1 mps 551 mmHg 74%
    10:00 +19°C° 0 mm 1 mps 552 mmHg 67%
    11:00 +19°C° 0.2 mm 1 mps 551 mmHg 66%
    12:00 +19°C° 0.2 mm 1 mps 551 mmHg 66%
    13:00 +19°C° 0.2 mm 2 mps 550 mmHg 65%
    14:00 +18°C° 0.3 mm 2 mps 549 mmHg 70%
    15:00 +17°C° 0.3 mm 2 mps 548 mmHg 75%
    16:00 +16°C° 0.3 mm 1 mps 547 mmHg 79%
    17:00 +15°C° 0.2 mm 1 mps 547 mmHg 84%
    18:00 +14°C° 0.2 mm 1 mps 547 mmHg 88%
    19:00 +12°C° 0.2 mm 0 mps 547 mmHg 93%
    20:00 +12°C° 0.1 mm 0 mps 547 mmHg 93%
    21:00 +12°C° 0.1 mm 0 mps 547 mmHg 93%
    22:00 +12°C° 0.1 mm 0 mps 548 mmHg 93%
    23:00 +11°C° 0.1 mm 0 mps 547 mmHg 93%

    29 January, Wednesday

    Time Temperature Precipitation Wind Pressure Humidity
    00:00 +11°C° 0.1 mm 0 mps 547 mmHg 93%
    01:00 +11°C° 0.1 mm 0 mps 547 mmHg 94%
    02:00 +11°C° 0.1 mm 0 mps 547 mmHg 94%
    03:00 +10°C° 0.1 mm 0 mps 546 mmHg 94%
    04:00 +10°C° 0.1 mm 0 mps 546 mmHg 93%
    05:00 +10°C° 0 mm 0 mps 547 mmHg 93%
    06:00 +11°C° 0 mm 0 mps 547 mmHg 92%
    07:00 +11°C° 0 mm 0 mps 548 mmHg 91%
    08:00 +13°C° 0 mm 0 mps 549 mmHg 82%
    09:00 +16°C° 0 mm 1 mps 550 mmHg 74%
    10:00 +19°C° 0 mm 1 mps 551 mmHg 66%
    11:00 +19°C° 0.4 mm 1 mps 551 mmHg 67%
    12:00 +19°C° 0.4 mm 1 mps 550 mmHg 68%
    13:00 +18°C° 0.4 mm 2 mps 550 mmHg 70%
    14:00 +19°C° 1.1 mm 1 mps 549 mmHg 74%
    15:00 +18°C° 1.1 mm 1 mps 548 mmHg 79%
    16:00 +16°C° 1.1 mm 1 mps 547 mmHg 84%
    17:00 +15°C° 0.7 mm 1 mps 547 mmHg 87%
    18:00 +13°C° 0.7 mm 0 mps 547 mmHg 90%
    19:00 +12°C° 0.7 mm 0 mps 546 mmHg 93%
    20:00 +12°C° 0.2 mm 0 mps 547 mmHg 93%
    21:00 +12°C° 0.2 mm 0 mps 547 mmHg 92%
    22:00 +12°C° 0.2 mm 0 mps 547 mmHg 92%
    23:00 +11°C° 0.1 mm 0 mps 547 mmHg 92%

    30 January, Thursday

    Time Temperature Precipitation Wind Pressure Humidity
    00:00 +11°C° 0.1 mm 0 mps 547 mmHg 92%
    01:00 +11°C° 0.1 mm 0 mps 547 mmHg 92%
    02:00 +11°C° 0.1 mm 0 mps 547 mmHg 93%
    03:00 +11°C° 0.1 mm 0 mps 547 mmHg 94%
    04:00 +11°C° 0.1 mm 0 mps 546 mmHg 94%
    05:00 +11°C° 0.1 mm 0 mps 547 mmHg 93%
    06:00 +11°C° 0.1 mm 0 mps 547 mmHg 93%
    07:00 +11°C° 0.1 mm 0 mps 548 mmHg 92%
    08:00 +13°C° 0.1 mm 0 mps 549 mmHg 85%
    09:00 +15°C° 0.1 mm 1 mps 550 mmHg 79%
    10:00 +18°C° 0.1 mm 1 mps 551 mmHg 72%
    11:00 +18°C° 0.4 mm 1 mps 550 mmHg 71%
    12:00 +18°C° 0.4 mm 2 mps 550 mmHg 70%
    13:00 +18°C° 0.4 mm 2 mps 550 mmHg 69%
    14:00 +18°C° 0.9 mm 2 mps 549 mmHg 73%
    15:00 +18°C° 0.9 mm 1 mps 548 mmHg 77%
    16:00 +16°C° 0.9 mm 1 mps 547 mmHg 81%
    17:00 +15°C° 0.5 mm 1 mps 547 mmHg 85%
    18:00 +14°C° 0.5 mm 1 mps 547 mmHg 88%
    19:00 +13°C° 0.5 mm 1 mps 547 mmHg 91%
    20:00 +12°C° 0.1 mm 1 mps 547 mmHg 91%
    21:00 +12°C° 0.1 mm 1 mps 547 mmHg 91%
    22:00 +12°C° 0.1 mm 1 mps 547 mmHg 91%
    23:00 +11°C° 0 mm 1 mps 547 mmHg 91%

    31 January, Friday

    Time Temperature Precipitation Wind Pressure Humidity
    00:00 +10°C° 0 mm 0 mps 546 mmHg 91%
    01:00 +10°C° 0 mm 0 mps 546 mmHg 91%
    02:00 +11°C° 0 mm 1 mps 546 mmHg 91%
    03:00 +11°C° 0 mm 1 mps 546 mmHg 91%
    04:00 +11°C° 0 mm 1 mps 546 mmHg 91%
    05:00 +11°C° 0 mm 1 mps 546 mmHg 90%
    06:00 +11°C° 0 mm 1 mps 547 mmHg 90%
    07:00 +11°C° 0 mm 1 mps 547 mmHg 90%
    08:00 +13°C° 0 mm 1 mps 548 mmHg 80%
    09:00 +15°C° 0 mm 1 mps 549 mmHg 71%
    10:00 +18°C° 0 mm 1 mps 551 mmHg 61%
    11:00 +19°C° 0 mm 1 mps 551 mmHg 57%
    12:00 +19°C° 0 mm 2 mps 551 mmHg 53%
    13:00 +20°C° 0 mm 2 mps 551 mmHg 49%
    14:00 +19°C° 0.1 mm 2 mps 550 mmHg 54%
    15:00 +18°C° 0.1 mm 2 mps 549 mmHg 58%
    16:00 +18°C° 0.1 mm 2 mps 548 mmHg 63%
    17:00 +16°C° 0.1 mm 2 mps 547 mmHg 71%
    18:00 +14°C° 0.1 mm 1 mps 547 mmHg 80%
    19:00 +12°C° 0.1 mm 1 mps 546 mmHg 88%
    20:00 +12°C° 0 mm 1 mps 547 mmHg 89%
    21:00 +11°C° 0 mm 1 mps 547 mmHg 89%
    22:00 +11°C° 0 mm 1 mps 547 mmHg 89%
    23:00 +11°C° 0 mm 1 mps 547 mmHg 89%
    Show more